Torna al catalogo

STARLINK-30771

AttivoComunicazioniVLEO
NORAD 58169·PAYLOAD·🇺🇸 United States

Lanciato Oct 29, 2023 da Vandenberg Space Force Base

Loading…

Prossimi Passaggi (prossime 24 ore)

TLE

AggiornatoSource: CelesTrak SupGP

Epoca: Sep 15, 2026, 03:09 UTC

1 58169C 23166V   26258.13173611 -.00027241  00000+0 -80493-3 0  2585
2 58169  53.1598  59.1105 0001203  90.0199 200.8935 15.34401220    17

Traccia STARLINK-30771 in tempo reale con AllMySat

Download on the App Store